BRUNSWICK RIVER AT VILLAGE PIER GA US USGS current weather conditions

sailwx.info

Wind from 354 at 7 knots

Last reported at 2020-Jan-21 05:45 UTC.
Time now 2020-Jan-21 06:22 UTC

Location: N 31°08' W 081°24'.
View on Google Maps.

See reports from other nearby stations

  
Tides and Currents Weather Stations Pressure Air Temp Water Temp Dewpoint Dewpoint Depression Visibility Wind Speed Wind Dir Waves Ship Positions
date/time (UTC)wind fromknots sea level pressurealtimeterstation pressurevisibilityair tempwater tempwave heightnotes
2020-Jan-21 05:45 354 7
2020-Jan-21 04:45 306 4
2020-Jan-21 03:45 356 6
2020-Jan-21 02:45 008 3
2020-Jan-21 01:45 341 4
2020-Jan-21 00:45 340 1
2020-Jan-20 23:45 067 2
2020-Jan-20 22:45 052 3
2020-Jan-20 21:45 077 7
2020-Jan-20 20:45 076 9
2020-Jan-20 19:45 042 7
2020-Jan-20 18:45 027 7
2020-Jan-20 17:45 341 9
2020-Jan-20 16:45 321 6
2020-Jan-20 15:45 052 6
2020-Jan-20 14:45 356 6
2020-Jan-20 13:45 338 11
2020-Jan-20 12:45 344 7
2020-Jan-20 11:45
2020-Jan-20 10:45 330 4
2020-Jan-20 09:45 347 9
2020-Jan-20 08:45 333 7
2020-Jan-20 07:45 312 7
2020-Jan-20 06:45 290 3
2020-Jan-20 05:45 317 4
2020-Jan-20 04:45 300 6
2020-Jan-20 03:45 307 7
2020-Jan-20 02:45 301 16
2020-Jan-20 01:45 294 4
2020-Jan-20 00:45 298 12
2020-Jan-19 23:45 296 8
2020-Jan-19 22:45 297 7
2020-Jan-19 21:45 287 9
2020-Jan-19 20:45 290 13
2020-Jan-19 19:45 273 9
2020-Jan-19 18:45 285 11
2020-Jan-19 17:45 264 14
2020-Jan-19 16:45 251 10
2020-Jan-19 15:45 229 8
2020-Jan-19 14:45 237 17
2020-Jan-19 13:45 249 4
2020-Jan-19 12:45 264 6
2020-Jan-19 11:45 220 8
2020-Jan-19 10:45 203 8
2020-Jan-19 09:45 220 7
2020-Jan-19 08:45 219 7
2020-Jan-19 07:45 216 6
2020-Jan-19 06:45 210 13